Powrót do katalogu

STARLINK-5694

AktywnyŁącznośćVLEO
NORAD 55481·PAYLOAD·🇺🇸 United States

Wystrzelony Feb 2, 2023 z Cape Canaveral Space Force Station

Loading…

Następne Przeloty (najbliższe 24 godziny)

TLE

ŚwieżeSource: CelesTrak SupGP

Epoka: Sep 15, 2026, 03:01 UTC

1 55481C 23015AJ  26258.12618056  .00026591  00000+0  96321-3 0  2580
2 55481  43.0041 350.0337 0001959 280.0300 149.4867 15.27561959    15

Śledź STARLINK-5694 w czasie rzeczywistym z AllMySat

Download on the App Store